503  
ASUS43 KIWX 130010  
RWRIWX  
 
KIWX WEATHER ROUNDUP  
NATIONAL WEATHER SERVICE NORTHERN INDIANA  
800 PM EDT WED AUG 12 2020  
 
NOTE: "FAIR" INDICATES FEW OR NO CLOUDS BELOW 12,000 FEET WITH NO  
SIGNIFICANT WEATHER AND/OR S TO VISIBILITY
.  
 
* THESE STATIONS ARE NOT UNDER NWS QUALITY CONTROL. THEY ALSO MAY NOT  
REPORT WEATHER SUCH AS PRECIPITATION OR FOG.
 
 
INZ001>027-130100-  
NORTHERN INDIANA  
 
CITY SKY/WX TMP DP RH WIND PRES REMARKS
 
GARY* PTCLDY 75 64 69 NE7 30.08S  
VALPARAISO CLEAR 78 67 68 NE3 30.07S  
6HR MIN TEMP: 78; 6HR MAX TEMP: 83;  
 
MICHIGAN CITY* CLEAR 73 70 88 N3 30.08R  
LAPORTE* CLEAR 79 67 67 CALM 30.08S  
6HR MIN TEMP: 78; 6HR MAX TEMP: 83;  
 
KNOX* CLEAR 79 64 61 E3 30.05F  
SOUTH BEND CLEAR 81 57 43 NE6 30.07S  
ELKHART* CLEAR 79 59 50 E5 30.07F  
GOSHEN CLEAR 80 62 54 E3 30.08R  
6HR MIN TEMP: 80; 6HR MAX TEMP: 85;  
 
MONTICELLO* CLEAR 80 63 56 CALM 30.05S  
6HR MIN TEMP: 79; 6HR MAX TEMP: 83;  
 
LOGANSPORT* CLEAR 77 66 69 CALM 30.07S  
ROCHESTER* CLEAR 81 64 57 CALM 30.07F  
PLYMOUTH* CLEAR 79 63 57 E3 30.07S  
AUBURN* CLEAR 79 64 61 E3 30.08S  
FORT WAYNE PTCLDY 76 64 66 E5 30.08R  
6HR MIN TEMP: 76; 6HR MAX TEMP: 82;  
 
HUNTINGTON* CLEAR N/A N/A N/A CALM 30.08R  
PERU/GRISSOM CLEAR 79 67 65 E7 30.05S  
6HR MIN TEMP: 79; 6HR MAX TEMP: 84;  
 

 
INZ028>050-130100-  
CENTRAL INDIANA  
 
CITY SKY/WX TMP DP RH WIND PRES REMARKS
 
LAFAYETTE CLEAR 82 65 56 NE6 30.03F  
6HR MIN TEMP: 82; 6HR MAX TEMP: 87;  
 
KOKOMO* CLEAR 78 68 71 E7 30.07S  
6HR MIN TEMP: 78; 6HR MAX TEMP: 83;  
 
MARION* CLEAR 75 67 77 CALM 30.08S HAZE  
6HR MIN TEMP: 51; 6HR MAX TEMP: 85;  
 
MUNCIE* PTCLDY 81 67 62 SE3 30.07S  
6HR MIN TEMP: 80; 6HR MAX TEMP: 85;  
 
PORTLAND* FAIR 79 59 50 CALM 30.06F  
INDIANAPOLIS MOCLDY 81 68 64 E9 30.03S  
6HR MIN TEMP: 80; 6HR MAX TEMP: 85;  
 

 
MIZ043>046-050>051-056>058-064>065-071>073-077>080-130100-  
SOUTHWEST LOWER MICHIGAN  
 
CITY SKY/WX TMP DP RH WIND PRES REMARKS
 
BATTLE CREEK CLEAR 82 55 39 CALM 30.09F  
6HR MIN TEMP: 81; 6HR MAX TEMP: 85;  
 
BENTON HARBOR CLEAR 76 62 62 VRB3 30.07S  
6HR MIN TEMP: 76; 6HR MAX TEMP: 85;  
 
COLDWATER* CLEAR 78 55 44 E3 30.09S  
6HR MIN TEMP: 78; 6HR MAX TEMP: 82;  
 
HILLSDALE* CLEAR 75 59 56 E3 30.10S  
6HR MIN TEMP: 75; 6HR MAX TEMP: 82;  
 
HOLLAND CLEAR 78 57 48 NW5 30.09S  
6HR MIN TEMP: 78; 6HR MAX TEMP: 86;  
 
GRAND RAPIDS PTCLDY 81 59 47 SE5 30.09S  
6HR MIN TEMP: 81; 6HR MAX TEMP: 86;  
 
KALAMAZOO CLEAR 82 54 37 E3 30.09S  
6HR MIN TEMP: 82; 6HR MAX TEMP: 86;  
 
STURGIS* CLEAR 77 62 59 CALM 30.08S  
6HR MIN TEMP: 77; 6HR MAX TEMP: 82;  
 
THREE RIVERS* FAIR 79 58 48 CALM 30.09S HAZE  
6HR MIN TEMP: 79; 6HR MAX TEMP: 83;  
 

 
OHZ001>008-015>018-024>025-130100-  
NORTHWEST OHIO  
 
CITY SKY/WX TMP DP RH WIND PRES REMARKS
 
WAUSEON* FAIR 75 57 53 E7 30.09R  
DEFIANCE CLEAR 81 55 40 E8 30.07S  
6HR MIN TEMP: 81; 6HR MAX TEMP: 85;  
 
FINDLAY CLEAR 81 59 47 NE10 30.07R  
6HR MIN TEMP: 81; 6HR MAX TEMP: 87;  
 
OTTAWA* FAIR 77 57 50 NE6 30.09S  
TOLEDO EXPRESS CLEAR 80 51 36 E8 30.08S  
6HR MIN TEMP: 80; 6HR MAX TEMP: 87;  
 
VAN WERT* FAIR N/A N/A N/A E6 30.08S  
LIMA CLEAR 78 64 61 NE6 30.08R  
6HR MIN TEMP: 78; 6HR MAX TEMP: 83; 6HR PCP: TRACE;  
 

 
AND FOR LAKE MICHIGAN COASTAL AND OPEN LAKE BUOY OBSERVATIONS  
 
STATION/POSITION TEMP WIND PRES VSBY WAVE
 
AIR SEA DIR/SP/G HT/PER  
(F) (DEG/KT/KT) (MB) (MI) (FT/S)  
CALUMET HARBOR 75 40/ 6/ 8 1017.8R  
SAINT JOSEPH 77 30/ 6/ 10 1019.3  
SOUTH LAKE BUOY 76 74 20/ 4/ 6 1018.3S 0  
MICHIGAN CITY 74 74 N/A 2/ 3  
 

 

 
 
 
CLICK HERE TO GO TO PREVIOUS BULLETINS.

The Nexlab IN Page
The Nexlab OH Page
The Nexlab MI Page Main Text Page